| time (UTC) | temp F | wind direction | speed MPH | gust MPH | rain 1hr in | rain 24hr in | rain mn in | humidity % | barometer mb |
| 20260509150029 | 80 | 171 | 0.0 | 0.0 | 0.00 | 0.00 | 0.00 | 26 | 1007.7 |
| 20260509145019 | 79 | 191 | 0.0 | 0.0 | 0.00 | 0.00 | 0.00 | 26 | 1007.7 |
| 20260509144041 | 78 | 133 | 0.0 | 1.0 | 0.00 | 0.00 | 0.00 | 27 | 1007.7 |
| 20260509143030 | 77 | 179 | 0.0 | 0.0 | 0.00 | 0.00 | 0.00 | 28 | 1007.7 |
| 20260509142020 | 76 | 0.0 | 0.0 | 0.00 | 0.00 | 0.00 | 30 | 1007.7 | |
| 20260509141028 | 75 | 0.0 | 0.0 | 0.00 | 0.00 | 0.00 | 31 | 1007.6 | |
| 20260509140026 | 74 | 0.0 | 0.0 | 0.00 | 0.00 | 0.00 | 32 | 1007.6 | |
| 20260509135023 | 73 | 0.0 | 0.0 | 0.00 | 0.00 | 0.00 | 33 | 1007.4 | |
| 20260509134020 | 72 | 0.0 | 0.0 | 0.00 | 0.00 | 0.00 | 33 | 1007.3 | |
| 20260509133019 | 71 | 0.0 | 0.0 | 0.00 | 0.00 | 0.00 | 33 | 1007.3 | |
| 20260509132023 | 70 | 0.0 | 0.0 | 0.00 | 0.00 | 0.00 | 34 | 1007.2 | |
| 20260509131052 | 70 | 0.0 | 0.0 | 0.00 | 0.00 | 0.00 | 34 | 1007.1 | |
| 20260509130028 | 70 | 0.0 | 0.0 | 0.00 | 0.00 | 0.00 | 34 | 1007.0 | |
| 20260509125043 | 70 | 0.0 | 0.0 | 0.00 | 0.00 | 0.00 | 33 | 1006.8 | |
| 20260509124019 | 70 | 0.0 | 0.0 | 0.00 | 0.00 | 0.00 | 33 | 1006.8 | |
| 20260509123041 | 71 | 0.0 | 0.0 | 0.00 | 0.00 | 0.00 | 33 | 1006.7 | |
| 20260509122021 | 71 | 0.0 | 0.0 | 0.00 | 0.00 | 0.00 | 32 | 1006.6 | |
| 20260509121024 | 71 | 0.0 | 0.0 | 0.00 | 0.00 | 0.00 | 32 | 1006.5 | |
| 20260509120040 | 71 | 0.0 | 0.0 | 0.00 | 0.00 | 0.00 | 31 | 1006.5 | |
| 20260509115104 | 71 | 0.0 | 0.0 | 0.00 | 0.00 | 0.00 | 31 | 1006.5 | |
| 20260509114033 | 72 | 0.0 | 0.0 | 0.00 | 0.00 | 0.00 | 31 | 1006.5 | |
| 20260509113023 | 72 | 0.0 | 0.0 | 0.00 | 0.00 | 0.00 | 31 | 1006.5 | |
| 20260509112029 | 72 | 0.0 | 0.0 | 0.00 | 0.00 | 0.00 | 31 | 1006.4 | |
| 20260509111036 | 73 | 0.0 | 0.0 | 0.00 | 0.00 | 0.00 | 30 | 1006.4 | |
| 20260509110032 | 73 | 0.0 | 0.0 | 0.00 | 0.00 | 0.00 | 29 | 1006.3 | |
| 20260509105050 | 74 | 0.0 | 0.0 | 0.00 | 0.00 | 0.00 | 28 | 1006.1 | |
| 20260509104020 | 74 | 0.0 | 0.0 | 0.00 | 0.00 | 0.00 | 28 | 1006.1 | |
| 20260509103029 | 74 | 0.0 | 0.0 | 0.00 | 0.00 | 0.00 | 28 | 1006.1 | |
| 20260509102026 | 74 | 0.0 | 0.0 | 0.00 | 0.00 | 0.00 | 28 | 1006.2 | |
| 20260509101023 | 75 | 0.0 | 0.0 | 0.00 | 0.00 | 0.00 | 27 | 1006.1 | |
| 20260509100020 | 75 | 158 | 0.0 | 0.0 | 0.00 | 0.00 | 0.00 | 27 | 1006.1 |
| 20260509095039 | 75 | 0.0 | 0.0 | 0.00 | 0.00 | 0.00 | 27 | 1006.0 | |
| 20260509094023 | 76 | 0.0 | 0.0 | 0.00 | 0.00 | 0.00 | 27 | 1006.0 | |
| 20260509093030 | 76 | 0.0 | 0.0 | 0.00 | 0.00 | 0.00 | 26 | 1006.1 | |
| 20260509092024 | 76 | 0.0 | 0.0 | 0.00 | 0.00 | 0.00 | 25 | 1006.1 | |
| 20260509091021 | 76 | 0.0 | 0.0 | 0.00 | 0.00 | 0.00 | 25 | 1006.1 | |
| 20260509090036 | 76 | 0.0 | 0.0 | 0.00 | 0.00 | 0.00 | 25 | 1006.1 | |
| 20260509085020 | 77 | 0.0 | 0.0 | 0.00 | 0.00 | 0.00 | 25 | 1006.1 | |
| 20260509084029 | 77 | 0.0 | 0.0 | 0.00 | 0.00 | 0.00 | 24 | 1006.3 | |
| 20260509083052 | 77 | 0.0 | 0.0 | 0.00 | 0.00 | 0.00 | 24 | 1006.1 | |
| 20260509082043 | 78 | 0.0 | 0.0 | 0.00 | 0.00 | 0.00 | 24 | 1006.1 | |
| 20260509081035 | 78 | 0.0 | 0.0 | 0.00 | 0.00 | 0.00 | 24 | 1006.1 | |
| 20260509080039 | 78 | 0.0 | 0.0 | 0.00 | 0.00 | 0.00 | 23 | 1006.3 | |
| 20260509075024 | 79 | 0.0 | 0.0 | 0.00 | 0.00 | 0.00 | 23 | 1006.3 | |
| 20260509074029 | 79 | 0.0 | 0.0 | 0.00 | 0.00 | 0.00 | 23 | 1006.3 | |
| 20260509073037 | 79 | 0.0 | 0.0 | 0.00 | 0.00 | 0.00 | 23 | 1006.3 | |
| 20260509072031 | 80 | 0.0 | 0.0 | 0.00 | 0.00 | 0.00 | 22 | 1006.3 | |
| 20260509071030 | 80 | 0.0 | 0.0 | 0.00 | 0.00 | 0.00 | 22 | 1006.3 | |
| 20260509070020 | 80 | 29 | 0.0 | 0.0 | 0.00 | 0.00 | 0.00 | 22 | |
| 20260509065107 | 81 | 281 | 1.0 | 1.0 | 0.00 | 0.00 | 0.00 | 22 | |
| 20260509064023 | 81 | 248 | 0.0 | 0.0 | 0.00 | 0.00 | 0.00 | 21 | |
| 20260509063024 | 81 | 33 | 0.0 | 0.0 | 0.00 | 0.00 | 0.00 | 21 | |
| 20260509062021 | 81 | 32 | 0.0 | 1.0 | 0.00 | 0.00 | 0.00 | 21 | 1005.9 |
| 20260509061052 | 81 | 17 | 0.0 | 1.0 | 0.00 | 0.00 | 0.00 | 21 | 1005.9 |
| 20260509060024 | 82 | 43 | 0.0 | 1.0 | 0.00 | 0.00 | 0.00 | 21 | 1005.8 |
| 20260509055030 | 82 | 23 | 0.0 | 1.0 | 0.00 | 0.00 | 0.00 | 21 | 1005.7 |
| 20260509054025 | 82 | 26 | 0.0 | 0.0 | 0.00 | 0.00 | 0.00 | 20 | 1005.6 |
| 20260509053042 | 82 | 20 | 0.0 | 0.0 | 0.00 | 0.00 | 0.00 | 20 | 1005.7 |
| 20260509052050 | 83 | 359 | 0.0 | 0.0 | 0.00 | 0.00 | 0.00 | 20 | 1005.7 |
| 20260509051021 | 83 | 29 | 0.0 | 1.0 | 0.00 | 0.00 | 0.00 | 20 | 1005.7 |
| 20260509050026 | 83 | 24 | 0.0 | 0.0 | 0.00 | 0.00 | 0.00 | 20 | 1005.6 |
| 20260509045040 | 84 | 43 | 0.0 | 0.0 | 0.00 | 0.00 | 0.00 | 20 | 1005.5 |
| 20260509044035 | 84 | 0.0 | 0.0 | 0.00 | 0.00 | 0.00 | 20 | 1005.5 | |
| 20260509043040 | 84 | 0.0 | 0.0 | 0.00 | 0.00 | 0.00 | 19 | 1005.4 | |
| 20260509042026 | 85 | 0.0 | 0.0 | 0.00 | 0.00 | 0.00 | 19 | 1005.3 | |
| 20260509041024 | 85 | 0.0 | 0.0 | 0.00 | 0.00 | 0.00 | 19 | 1005.2 | |
| 20260509040030 | 86 | 0.0 | 0.0 | 0.00 | 0.00 | 0.00 | 19 | 1005.1 | |
| 20260509035032 | 86 | 0.0 | 0.0 | 0.00 | 0.00 | 0.00 | 18 | 1005.0 | |
| 20260509034030 | 86 | 0.0 | 0.0 | 0.00 | 0.00 | 0.00 | 20 | 1004.9 | |
| 20260509033042 | 86 | 0.0 | 0.0 | 0.00 | 0.00 | 0.00 | 17 | 1004.8 | |
| 20260509032021 | 87 | 0.0 | 0.0 | 0.00 | 0.00 | 0.00 | 16 | 1004.8 | |
| 20260509031027 | 87 | 0.0 | 0.0 | 0.00 | 0.00 | 0.00 | 15 | 1004.6 | |
| 20260509030042 | 88 | 23 | 0.0 | 0.0 | 0.00 | 0.00 | 0.00 | 14 | 1004.4 |
| 20260509025101 | 89 | 345 | 0.0 | 1.0 | 0.00 | 0.00 | 0.00 | 14 | 1004.4 |
| 20260509024022 | 89 | 342 | 0.0 | 1.0 | 0.00 | 0.00 | 0.00 | 14 | 1004.3 |
| 20260509023036 | 90 | 318 | 1.0 | 1.0 | 0.00 | 0.00 | 0.00 | 13 | 1004.1 |
| 20260509022025 | 90 | 315 | 1.0 | 1.0 | 0.00 | 0.00 | 0.00 | 13 | 1004.1 |
| 20260509021022 | 91 | 340 | 2.0 | 2.0 | 0.00 | 0.00 | 0.00 | 13 | 1004.0 |
| 20260509020058 | 91 | 323 | 1.0 | 2.0 | 0.00 | 0.00 | 0.00 | 13 | 1003.9 |
| 20260509014031 | 92 | 299 | 1.0 | 2.0 | 0.00 | 0.00 | 0.00 | 13 | 1003.7 |
| 20260509013021 | 93 | 302 | 2.0 | 2.0 | 0.00 | 0.00 | 0.00 | 13 | 1003.7 |
| 20260509012027 | 93 | 335 | 2.0 | 3.0 | 0.00 | 0.00 | 0.00 | 11 | 1003.7 |
| 20260509011034 | 0 | 2 | 3.0 | 3.0 | 0.00 | 0.00 | 0.00 | 1003.7 | |
| 20260509010043 | 94 | 11 | 2.0 | 3.0 | 0.00 | 0.00 | 0.00 | 12 | 1003.7 |
| 20260509005028 | 94 | 298 | 2.0 | 2.0 | 0.00 | 0.00 | 0.00 | 12 | 1003.7 |
| 20260509004037 | 94 | 277 | 3.0 | 3.0 | 0.00 | 0.00 | 0.00 | 12 | 1003.7 |
| 20260509003059 | 94 | 323 | 3.0 | 3.0 | 0.00 | 0.00 | 0.00 | 12 | 1003.7 |
| 20260509002033 | 95 | 304 | 2.0 | 2.0 | 0.00 | 0.00 | 0.00 | 12 | 1003.7 |
| 20260509001031 | 95 | 330 | 2.0 | 2.0 | 0.00 | 0.00 | 0.00 | 12 | 1003.8 |
| 20260509000026 | 95 | 275 | 3.0 | 3.0 | 0.00 | 0.00 | 0.00 | 12 | 1003.8 |
| 20260508235027 | 95 | 353 | 3.0 | 3.0 | 0.00 | 0.00 | 0.00 | 12 | 1003.8 |
| 20260508234021 | 95 | 305 | 2.0 | 3.0 | 0.00 | 0.00 | 0.00 | 12 | 1003.9 |
| 20260508233043 | 96 | 314 | 3.0 | 3.0 | 0.00 | 0.00 | 0.00 | 12 | 1004.1 |
| 20260508232021 | 96 | 320 | 2.0 | 3.0 | 0.00 | 0.00 | 0.00 | 12 | 1004.1 |
| 20260508231021 | 96 | 296 | 2.0 | 2.0 | 0.00 | 0.00 | 0.00 | 12 | 1004.2 |
| 20260508230059 | 96 | 290 | 2.0 | 3.0 | 0.00 | 0.00 | 0.00 | 12 | 1004.2 |
| 20260508225046 | 96 | 315 | 3.0 | 3.0 | 0.00 | 0.00 | 0.00 | 12 | 1004.4 |
| 20260508224024 | 96 | 283 | 3.0 | 3.0 | 0.00 | 0.00 | 0.00 | 13 | 1004.4 |
| 20260508223046 | 96 | 286 | 3.0 | 3.0 | 0.00 | 0.00 | 0.00 | 13 | 1004.5 |
| 20260508222057 | 97 | 286 | 2.0 | 3.0 | 0.00 | 0.00 | 0.00 | 13 | 1004.6 |
| 20260508221033 | 96 | 341 | 3.0 | 3.0 | 0.00 | 0.00 | 0.00 | 13 | 1004.9 |
| 20260508220048 | 96 | 260 | 3.0 | 3.0 | 0.00 | 0.00 | 0.00 | 13 | 1005.1 |
| 20260508215044 | 96 | 258 | 3.0 | 3.0 | 0.00 | 0.00 | 0.00 | 13 | 1005.2 |
| 20260508214028 | 96 | 270 | 3.0 | 3.0 | 0.00 | 0.00 | 0.00 | 13 | 1005.4 |
| 20260508213034 | 96 | 301 | 2.0 | 3.0 | 0.00 | 0.00 | 0.00 | 14 | 1005.5 |
| 20260508212051 | 96 | 230 | 3.0 | 3.0 | 0.00 | 0.00 | 0.00 | 13 | 1005.6 |
| 20260508211041 | 96 | 282 | 2.0 | 3.0 | 0.00 | 0.00 | 0.00 | 14 | 1005.7 |
| 20260508210021 | 96 | 1 | 2.0 | 2.0 | 0.00 | 0.00 | 0.00 | 14 | 1005.9 |
| 20260508205025 | 96 | 303 | 3.0 | 3.0 | 0.00 | 0.00 | 0.00 | 14 | 1006.0 |
| 20260508204052 | 96 | 271 | 3.0 | 3.0 | 0.00 | 0.00 | 0.00 | 14 | 1006.3 |
| 20260508203030 | 96 | 343 | 3.0 | 3.0 | 0.00 | 0.00 | 0.00 | 14 | 1006.4 |
| 20260508202028 | 95 | 329 | 3.0 | 3.0 | 0.00 | 0.00 | 0.00 | 15 | 1006.5 |
| 20260508201028 | 95 | 291 | 3.0 | 3.0 | 0.00 | 0.00 | 0.00 | 15 | 1006.6 |
| 20260508200024 | 95 | 311 | 3.0 | 3.0 | 0.00 | 0.00 | 0.00 | 15 | 1006.8 |
| 20260508195022 | 95 | 267 | 3.0 | 3.0 | 0.00 | 0.00 | 0.00 | 15 | 1006.8 |
| 20260508194020 | 94 | 294 | 3.0 | 3.0 | 0.00 | 0.00 | 0.00 | 16 | 1007.0 |
| 20260508193041 | 94 | 327 | 3.0 | 3.0 | 0.00 | 0.00 | 0.00 | 16 | 1007.0 |
| 20260508192046 | 93 | 303 | 3.0 | 3.0 | 0.00 | 0.00 | 0.00 | 16 | 1007.1 |
| 20260508191030 | 93 | 301 | 3.0 | 3.0 | 0.00 | 0.00 | 0.00 | 16 | 1007.2 |
| 20260508190019 | 92 | 282 | 2.0 | 2.0 | 0.00 | 0.00 | 0.00 | 17 | 1007.5 |
| 20260508185020 | 91 | 24 | 2.0 | 2.0 | 0.00 | 0.00 | 0.00 | 18 | 1007.5 |
| 20260508184037 | 91 | 290 | 2.0 | 2.0 | 0.00 | 0.00 | 0.00 | 18 | |
| 20260508183044 | 90 | 301 | 1.0 | 2.0 | 0.00 | 0.00 | 0.00 | 18 | |
| 20260508182026 | 89 | 168 | 2.0 | 2.0 | 0.00 | 0.00 | 0.00 | 18 | 1008.0 |
| 20260508181022 | 89 | 247 | 1.0 | 1.0 | 0.00 | 0.00 | 0.00 | 19 | 1008.1 |
| 20260508180028 | 89 | 202 | 1.0 | 1.0 | 0.00 | 0.00 | 0.00 | 19 | 1008.3 |
| 20260508175033 | 88 | 262 | 1.0 | 1.0 | 0.00 | 0.00 | 0.00 | 20 | 1008.4 |
| 20260508174040 | 87 | 322 | 1.0 | 1.0 | 0.00 | 0.00 | 0.00 | 20 | 1008.4 |
| 20260508173025 | 87 | 208 | 1.0 | 1.0 | 0.00 | 0.00 | 0.00 | 20 | 1008.5 |
| 20260508172041 | 86 | 214 | 1.0 | 1.0 | 0.00 | 0.00 | 0.00 | 20 | 1008.6 |
| 20260508171045 | 86 | 340 | 1.0 | 1.0 | 0.00 | 0.00 | 0.00 | 21 | 1008.8 |
| 20260508170032 | 85 | 256 | 1.0 | 1.0 | 0.00 | 0.00 | 0.00 | 22 | 1008.8 |
| 20260508165030 | 85 | 183 | 1.0 | 1.0 | 0.00 | 0.00 | 0.00 | 22 | 1008.9 |
| 20260508164027 | 84 | 301 | 1.0 | 1.0 | 0.00 | 0.00 | 0.00 | 23 | 1008.9 |
| 20260508163026 | 83 | 216 | 1.0 | 1.0 | 0.00 | 0.00 | 0.00 | 23 | 1008.9 |
| 20260508162043 | 82 | 320 | 1.0 | 1.0 | 0.00 | 0.00 | 0.00 | 23 | 1009.0 |
| 20260508161041 | 81 | 233 | 1.0 | 1.0 | 0.00 | 0.00 | 0.00 | 24 | 1009.0 |
| 20260508160023 | 80 | 222 | 1.0 | 1.0 | 0.00 | 0.00 | 0.00 | 25 | 1009.0 |
| 20260508155101 | 79 | 231 | 1.0 | 1.0 | 0.00 | 0.00 | 0.00 | 26 | 1009.1 |
| 20260508154046 | 79 | 151 | 1.0 | 1.0 | 0.00 | 0.00 | 0.00 | 27 | 1009.1 |
| 20260508153019 | 78 | 193 | 1.0 | 1.0 | 0.00 | 0.00 | 0.00 | 27 | 1009.2 |
| 20260508152025 | 77 | 217 | 1.0 | 1.0 | 0.00 | 0.00 | 0.00 | 28 | 1009.1 |
| 20260508151053 | 76 | 141 | 1.0 | 1.0 | 0.00 | 0.00 | 0.00 | 29 | 1009.1 |